TUSUR GO (RS78S)

Last updated on Sun Apr 12 2026 00:03:15 GMT+0000 (Coordinated Universal Time)

1 61782U 24199AZ 26101.36954528 .00288263 00000+0 11500-2 0 9998 2 61782 97.2905 340.9518 0007214 144.7608 215.4142 15.85842661124374

Satellite not in orbit

TUSUR GO (RS78S)